Location: Butler
(32.5575°N, 84.2380°W)
Time: 05:57:42
(UTC+00:00)

N. Korean satellite - Pass Details

Date: 06 December 2021
Orbit: 447 x 491 km, 97.3° (Epoch: 22 January)

Event Time Altitude Azimuth Distance (km) Brightness Sun altitude
Rises 11:44:44 0° 346° (NNW) 2,451 9.8 -8.6°
Reaches altitude 10° 11:47:46 10° 314° (NW) 1,574 8.6 -8.0°
Maximum altitude 11:49:10 12° 290° (WNW) 1,445 8.3 -7.8°
Drops below altitude 10° 11:50:33 10° 265° (W) 1,571 8.6 -7.5°
Sets 11:53:36 0° 234° (SW) 2,442 9.8 -6.9°
